Terug naar catalogus

FENGYUN 1C DEB

LostPO
NORAD 38133·DEBRIS·🇨🇳 China

Gelanceerd May 10, 1999 vanaf Taiyuan Satellite Launch Center

Loading…

Volgende Passages (komende 24 uur)

TLE

VerouderdSource: Space-Track

Epoch: Jan 19, 2023, 02:44 UTC

1 38133U 99025EQE 23019.11454519  .00009403  00000-0  77198-2 0  9998
2 38133  98.2782 342.1979 0262813 322.5938  35.7171 13.74760257661420

Volg FENGYUN 1C DEB in realtime met AllMySat

Download on the App Store